User: anonymous   Login
Location: Unspecified
(0.0000°N, 0.0000°E)
Time: 23:49:50
(UTC+00:00)
Language:

TBA - TO BE ASSIGNED - Orbit

View from above orbital plane
View from above orbital plane
View from above satellite
View from above satellite

Ground track
Ground track

The orbit is defined by the following mean orbital elements,

1 68641U          26144.78239200 +.00000000 +00000-0 +40212-4 0 00009
2 68641  88.9876 323.4155 0010627  75.2262 285.0073 13.62969308    08
Epoch (UTC): 24 May 2026 18:46:38
Eccentricity: 0.0010627
inclination: 88.9876°
perigee height: 1017 km
apogee height: 1033 km
right ascension of ascending node: 323.4155°
argument of perigee: 75.2262°
revolutions per day: 13.62969308
mean anomaly at epoch: 285.0073°

The dashed part of the orbit path shows where the satellite is in the earth's shadow,  

DLR